Regional Weather Roundup
Issued by NWS

Home | Current Version | Previous Version | Graphics & Text | Print | Product List | Glossary On
Versions: 1 2 3 4 5 6 7 8 9 10 11 12 13 14 15 16 17 18 19 20 21 22 23 24 25 26 27 28
000
ASUS45 KBOU 221210
RWRCO

WEATHER ROUNDUP FOR COLORADO
NATIONAL WEATHER SERVICE DENVER/BOULDER CO
500 AM MST WED NOV 22 2017

NOTE: "FAIR" INDICATES FEW OR NO CLOUDS BELOW 12000 FEET WITH NO
SIGNIFICANT WEATHER AND/OR OBSTRUCTIONS TO VISIBILITY.

COZ001>005-013-030-031-221300-
...NORTHWEST COLORADO...

CITY           SKY/WX    TMP DP  RH WIND       PRES   REMARKS
CRAIG          FAIR      32  29  88 SE3       30.44R
HAYDEN         CLOUDY    35  32  88 SE7       30.45R WCI  29
MEEKER         FAIR      35  32  88 CALM      30.44R
RABBIT EARS PA FOG      N/A N/A N/A W6        30.50R VSB 1
STEAMBOAT SPGS CLOUDY    33  33  97 CALM      30.44R
WALDEN         CLOUDY    37  30  75 SW14      30.43R
$$

COZ006>008-011-221300-
...WEST CENTRAL VALLEYS...

CITY           SKY/WX    TMP DP  RH WIND       PRES   REMARKS
GRAND JUNCTION FAIR      37  29  72 E9        30.42S
MONTROSE       FAIR      31  27  85 SE9       30.48S WCI  23
EAGLE          FAIR      29  26  89 CALM      30.50R
RIFLE          MOCLDY    30  29  96 CALM      30.46S
DELTA          FAIR      33  26  76 CALM      30.46S
NUCLA          FAIR      32  25  74 E9        30.49R WCI  24
$$

COZ017>023-064>068-221300-
...SOUTHWEST COLORADO...

CITY           SKY/WX    TMP DP  RH WIND       PRES   REMARKS
DURANGO        FAIR      25  18  74 N3        30.41R
CORTEZ         FAIR      28  22  78 E6        30.41S WCI  22
PAGOSA SPRINGS FAIR      28  20  74 CALM      30.44R
TELLURIDE      FAIR      33  22  65 SE7       30.54S WCI  26
WOLF CREEK PAS FAIR      32   9  37 NW6       30.62R WCI  26
$$

COZ009-010-012-014-032>034-037-058>063-221300-
...CENTRAL COLORADO...

CITY           SKY/WX    TMP DP  RH WIND       PRES   REMARKS
ASPEN          FAIR      31  26  82 SW9       30.46F WCI  23
BUENA VISTA    FAIR      35  23  62 CALM      30.42S
COPPER MTN     MOCLDY    30  25  80 MISG      30.55R
BERTHOUD PASS  CLOUDY    21  10  63 N31G38    30.48S WCI   3
COTTONWOOD PAS FAIR      43  23  45 W7        30.46S
GUNNISON       FAIR      22  20  92 CALM      30.52R
KREMMLING      CLOUDY    36  32  87 CALM      30.47R
LEADVILLE      FAIR      23  20  88 NE6       30.48S WCI  16
MONARCH PASS   FAIR      23  23 100 SW25      30.63F FOG     WCI   7
SALIDA         FAIR      43  25  48 NW10      30.48S
SUNLIGHT       FAIR      30  27  86 SW8       30.57F WCI  23
WILKERSON PASS FAIR      32  21  64 NW8G17    30.49S WCI  25
$$

COZ069>075-221300-
...SAN LUIS VALLEY/SANGRE DE CRISTO MOUNTAINS...

CITY           SKY/WX    TMP DP  RH WIND       PRES   REMARKS
ALAMOSA        FAIR      30  20  66 W6        30.43S WCI  24
DEL NORTE      FAIR      31  17  57 NW5       30.47R WCI  26
LA VETA PASS   FAIR      28  23  80 SW30        N/A  WCI  13
SAGUACHE       FAIR      36  28  75 N14       30.46R
$$

COZ035-036-038>040-221300-
...NORTHERN COLORADO FRONT RANGE...

CITY           SKY/WX    TMP DP  RH WIND       PRES   REMARKS
DENVER INTL AP MOCLDY    35  30  82 CALM      30.24S
DMNS CITY PARK   N/A     35  31  85 SE9G15    30.24F WCI  28
AURORA         MOCLDY    40  26  58 S8        30.25R
FRONT RANGE AP FAIR      36  31  81 CALM      30.26R
ERIE MUNI ARPT FAIR      31  29  94 CALM      30.29S
BOULDER MUN AP FAIR      34  32  93 CALM      30.24R
CENTENNIAL     MOCLDY    36  28  73 SE7       30.25R
BROOMFIELD     FAIR      36  32  87 W5        30.24S
FORT COLLINS   FAIR      34  33  96 VRB3      30.24S
LONGMONT       FAIR      34  32  91 CALM      30.25F
$$

COZ041-046-047-076>085-087-088-221300-
...PIKES PEAK/PALMER DIVIDE AND SOUTHERN FOOTHILLS...

CITY           SKY/WX    TMP DP  RH WIND       PRES   REMARKS
COLO. SPRINGS  FAIR      35  26  69 N10       30.28R WCI  27
A. F. ACADEMY  FAIR      29  28  92 N9        30.28S WCI  21
SCHRIEVER AFB  FAIR      36  24  62 CALM      30.28R
CHEYENNE MTN   FAIR      44  20  38 NW6       30.24R
ELLICOTT         N/A    N/A N/A N/A NE8       30.26S
FALCON         FAIR      32  24  71 NW8       30.30S WCI  25
FORT CARSON    FAIR      33  28  83 N10       30.26S WCI  25
LIMON          FAIR      25  24  96 N5        30.26R WCI  19
MONUMENT HILL  FAIR      36  25  64 SW6       30.31R
CANON CITY     FAIR      46  28  49 W13       30.27R
WALSENBURG     FAIR      41  30  65 W10       30.29R
TRINIDAD       FAIR      37  28  70 W16       30.29S
$$

COZ042>045-048>051-090-091-221300-
...NORTHEAST COLORADO...

CITY           SKY/WX    TMP DP  RH WIND       PRES   REMARKS
GREELEY ARPT   FAIR      31  28  89 S5        30.24F WCI  26
AKRON          FAIR      38  29  70 W14       30.20F
BURLINGTON     FAIR      37  28  70 SW14      30.23S
WRAY           NOT AVBL
YUMA           FAIR      36  30  80 W7        30.20S
STERLING       FAIR      30  28  93 SW7       30.19F WCI  23
HOLYOKE        FAIR      34  30  86 W6        30.18F WCI  29
FORT MORGAN    FAIR      29  26  88 W12       30.23S WCI  19
$$

COZ086-089-092>099-221300-
...SOUTHEAST COLORADO...

CITY           SKY/WX    TMP DP  RH WIND       PRES   REMARKS
PUEBLO         FAIR      31  28  89 CALM      30.27S
LA JUNTA       FAIR      29  25  85 W10       30.27R WCI  20
LAMAR          FAIR      25  20  81 CALM      30.26S
SPRINGFIELD      N/A     30  25  81 SW7       30.26F WCI  23
$$




USA.gov is the U.S. government's official web portal to all federal, state and local government web resources and services.